Regional Weather Roundup
Issued by NWS

Home | Current Version | Previous Version | Text Only | Print | Product List | Glossary Off
Versions: 1 2 3 4 5 6 7 8 9 10 11 12 13 14 15 16 17 18 19 20 21 22 23 24 25 26 27 28 29 30 31 32 33 34 35 36 37 38 39 40 41 42 43 44 45 46 47 48 49 50

000
ASUS43 KMPX 170901
RWRMN
WEATHER ROUNDUP FOR MINNESOTA
NATIONAL WEATHER SERVICE TWIN CITIES/CHANHASSEN MN
300 AM CST WED JAN 17 2018


NOTE: "FAIR" INDICATES FEW OR NO CLOUDS BELOW 12,000 FEET WITH NO
SIGNIFICANT WEATHER AND/OR OBSTRUCTIONS TO VISIBILITY. N/A MEANS
CURRENT SKY AND/OR WEATHER CONDITIONS ARE NOT AVAILABLE.

MNZ060>063-068>070-171000-
   Twin Cities Metro

CITY           SKY/WX    TMP DP  RH WIND       PRES   REMARKS
TWIN CITIES    FAIR      -1  -5  82 SW3       30.46F
ST PAUL        FAIR      -4  -7  87 S7        30.48F WCI -18
CRYSTAL        FAIR       0  -7  72 S6        30.43F WCI -12
BLAINE         FAIR       3  -2  78 SW8       30.42F WCI -10
LAKEVILLE      FAIR      -2  -6  84 CALM      30.45F
EDEN PRAIRIE   FAIR      -1  -6  79 SW9       30.44F WCI -16
SOUTH ST PAUL  FAIR      -4  -8  81 CALM      30.47F
LAKE ELMO      FAIR      -2  -6  84 S6        30.45F WCI -14
$$
MNZ001>005-007-008-013>017-022>024-027-028-171000-
   Northwest Minnesota

CITY           SKY/WX    TMP DP  RH WIND       PRES   REMARKS
BEMIDJI        FAIR       7  -3  64 SW9       30.17F WCI  -7
HALLOCK        FAIR       5   0  78 S21       30.08F WCI -16
ROSEAU           N/A     10   3  72 SW18      30.06F WCI  -8
WARROAD        FAIR       9   1  72 SW16G25   30.05F WCI  -9
CROOKSTON      FAIR       5   0  78 S24       30.20F HAZE    WCI -17
FOSSTON        FAIR       3  -2  78 S23       30.19F WCI -19
DETROIT LAKES  FAIR       3  -4  72 S5        30.26F WCI  -6
MOORHEAD       FAIR       1  -6  71 S14       30.29S WCI -17
PARK RAPIDS    FAIR       3  -5  69 SW8       30.23F WCI -10
MAHNOMEN       FAIR       5  -3  72 S14       30.23F WCI -13
$$
MNZ006-009>011-018-025>026-171000-
   North Central Minnesota

CITY           SKY/WX    TMP DP  RH WIND       PRES   REMARKS
BAUDETTE       FAIR       9  -1  64 SW16      30.06F WCI  -8
FLAG ISLAND    FAIR       9   0  66 SW15G21   30.01F WCI  -8
INTL FALLS     FAIR      10  -3  55 SW16G22   30.09F WCI  -7
WASKISH        FAIR      10   1  67 SW12G17   30.14F WCI  -4
BIG FORK       FAIR       7  -2  66 SW10      30.16F WCI  -8
LONGVILLE      FAIR       3  -2  78 SW5       30.24F WCI  -6
GRAND RAPIDS   FAIR       5  -3  69 S7        30.23F WCI  -7
CRANE LAKE     FAIR       7  -2  66 S6        30.14F WCI  -3
ORR            FAIR       7  -4  61 SW6       30.11F WCI  -3
COOK           FAIR       5  -2  72 SW10      30.15F WCI -10
WALKER         FAIR       6  -4  62 SW10G18   30.21F WCI  -8
$$
MNZ012-019>021-037-171000-
   Northeast Minnesota

CITY           SKY/WX    TMP DP  RH WIND       PRES   REMARKS
DULUTH         FAIR       4  -3  73 W17       30.22F WCI -16
ELY            FAIR       5  -2  72 SW10G16   30.13F WCI -10
HIBBING        FAIR       2  -4  76 SW5       30.20F WCI  -8
EVELETH        FAIR       2  -6  69 SW12      30.20F WCI -14
DULUTH HARBOR  FAIR       7   0  72 SW17      30.32S WCI -12
TWO HARBORS    FAIR       9   0  66 SW9       30.21F WCI  -5
SILVER BAY     FAIR       9   0  66 SW5       30.17F WCI   0
GRAND MARAIS     N/A     17   5  59 W13G18    30.17F WCI   4
G MARAIS ARPRT FAIR       9  -2  61 SW7       30.06F WCI  -3
$$
MNZ029>031-032-039>041-046>048-054>057-064-171000-
   West Central Minnesota

CITY           SKY/WX    TMP DP  RH WIND       PRES   REMARKS
FERGUS FALLS   FAIR       1  -6  71 S9        30.35F WCI -14
MORRIS         CLOUDY     1  -6  71 SE10      30.32F WCI -14
ALEXANDRIA     FAIR       3  -4  72 SW12      30.30F WCI -13
ELBOW LAKE     FAIR       1  -4  78 S10       30.32S WCI -15
WADENA         FAIR       1  -6  71 SW6       30.27F WCI -10
GLENWOOD       FAIR       0  -6  78 S8        30.33F WCI -15
APPLETON       CLOUDY     3  -4  72 S6        30.35F WCI  -8
BENSON         CLOUDY     0  -6  78 S8        30.37F WCI -15
ORTONVILLE     CLOUDY     1  -6  71 SE7       30.32F WCI -11
MADISON        CLOUDY     7   0  72 S7        30.35F WCI  -5
WILLMAR        FAIR       1  -4  78 CALM      30.40F
$$
MNZ033>034-036-042>043-049>051-058-059-171000-
   Central Minnesota

CITY           SKY/WX    TMP DP  RH WIND       PRES   REMARKS
ST CLOUD       FAIR      -2  -6  83 S6        30.37F WCI -14
SAUK CENTRE      N/A      1  -4  77 S7        30.33F WCI -11
PAYNESVILLE    FAIR       3  -2  80 SW8       30.37F WCI -11
AITKIN         FAIR       3  -4  72 SW8       30.27F WCI -10
PINE RIVER     FAIR       1  -4  78 S3        30.29F
BRAINERD       FAIR       2  -5  72 S7        30.30F WCI -11
STAPLES        FAIR       3  -4  72 SW7       30.28F WCI  -9
LONG PRAIRIE   FAIR       1  -4  78 S8        30.32F WCI -12
LITTLE FALLS   FAIR       1  -8  66 S5        30.34F WCI  -8
LITCHFIELD     FAIR       1  -2  85 S3        30.40F
BUFFALO        FAIR       0  -5  80 S6        30.42F WCI -12
MAPLE LAKE     FAIR       1  -3  84 MISG      30.40F
HUTCHINSON     FAIR       3  -3  77 S6        30.42F WCI  -8
$$
MNZ037-044-045-052-053-171000-
   East Central Minnesota

CITY           SKY/WX    TMP DP  RH WIND       PRES   REMARKS
PRINCETON      FAIR       0  -4  85 S6        30.38F WCI -12
MORA           FAIR       0  -6  78 SW6       30.39S WCI -12
CAMBRIDGE        N/A      0  -8  71 S6        30.41F WCI -12
RUSH CITY      MOCLDY    -1  -6  82 S5        30.40F WCI -12
MOOSE LAKE     FAIR       1  -4  78 SW7       30.31F WCI -11
HINCKLEY       FAIR       0  -4  85 S6        30.36F WCI -12
CLOQUET        FAIR       1  -6  71 SW7       30.26F WCI -11
MCGREGOR       FAIR       5   0  78 SW8       30.29F WCI  -8
$$
MNZ071>073-080-081-089-090-097-098-171000-
   Southwest Minnesota

CITY           SKY/WX    TMP DP  RH WIND       PRES   REMARKS
MONTEVIDEO     CLOUDY     1  -4  78 S3        30.37F
GRANITE FALLS  CLOUDY     3  -3  77 SE6       30.41F WCI  -8
CANBY          CLOUDY    11   1  64 SW23G31   30.32F WCI  -8
MARSHALL       CLOUDY    11   1  64 SW20      30.34F WCI  -7
REDWOOD FALLS  CLOUDY     0  -5  79 S6        30.42F WCI -12
OLIVIA         CLOUDY     3  -4  72 S8        30.40F WCI -10
PIPESTONE      CLOUDY     3  -2  78 SW16      30.36F WCI -16
WINDOM         CLOUDY     3 -11  51 S12       30.41F WCI -13
WORTHINGTON    CLOUDY     5   0  79 SW21      30.41S WCI -16
JACKSON        CLOUDY     3  -4  72 SW14      30.43F WCI -15
SLAYTON        CLOUDY     3  -2  78 S20       30.39F WCI -18
$$
MNZ065>067-074>077-082>085-091>093-171000-
   South Central Minnesota

CITY           SKY/WX    TMP DP  RH WIND       PRES   REMARKS
MANKATO        FAIR      -1  -5  82 S8        30.46F WCI -15
NEW ULM        CLOUDY     1  -6  71 S9        30.44F WCI -14
ST JAMES       CLOUDY     1  -4  78 S8        30.46S WCI -12
FAIRMONT       CLOUDY     2  -3  80 SW10      30.47F WCI -14
FARIBAULT      FAIR      -2  -8  78 S6        30.45F WCI -14
OWATONNA       FAIR      -2  -6  84 S9        30.46F WCI -18
WASECA         FAIR       0  -6  78 S10       30.48F WCI -17
ALBERT LEA     FAIR       0  -6  78 SW3       30.47F
$$
MNZ078>079-086>088-094>096-171000-
   Southeast Minnesota

CITY           SKY/WX    TMP DP  RH WIND       PRES   REMARKS
ROCHESTER      FAIR       0  -3  87 SW14      30.45F WCI -19
RED WING       FAIR      -8 -15  71 E3        30.48F
STANTON        FAIR      -1  -5  81 SW8       30.45F WCI -15
DODGE CENTER   FAIR      -2  -8  78 SW9       30.44F WCI -18
WINONA         FAIR      -6  -9  84 CALM      30.52F
PRESTON        FAIR      -1  -5  82 SW6       30.47F WCI -13
$$
ABBREVIATIONS USED IN REMARKS
   TC - TEMPERATURES IN CELSIUS
  WCI - WIND CHILL INDEX
   HX - HEAT INDEX
  VSB - VISIBILITY
$$




USA.gov is the U.S. government's official web portal to all federal, state and local government web resources and services.